Starlink 4082

operational
NORAD ID: 52658 Int'l Des: 2022-053 Owner: SPXS Country: US Constellation: starlink
LEOCIRCULAR

关于 Starlink 4082

正在加载描述...

实时位置

正在加载3D地球...

即将过境

高度历史

Altitude vs Time

uPlot chart will show altitude changes over time

两行轨道根数

1 52658U 22053C 25303.59940741 .00000337 00000-0 39279-4 0 9997
2 52658 53.2196 18.1187 0001522 83.8021 276.3144 15.08839626191592
Epoch: Oct 30, 2025 • Age: 25 hours

当前状态

高度 548.6 km
速度 7.59 km/s
星下点 -27.63°S, 51.51°W
发射日期 May 18, 2022
运行时间 3.4 years
类型 internet

技术详情

分类 Payload
质量 297.00 kg
干质量 275.00 kg
总质量 297.00 kg
长度 0.20 m
直径 2.80 m
跨度 9.00 m
形状 Box + pan
制造商 SPXS
平台类型 Starlink
阶段状态 In Orbit
所有者/国家 SPXS/US

大型星座

Loading constellations...